Location: Bamazo
(6.7448°N, 10.8189°W)
Time: 17:22:34
(UTC+00:00)

CSL-04 Debris - Pass Details

Date: 18 September 2020
Orbit: 827 x 847 km, 98.9° (Epoch: 24 October)

Event Time Altitude Azimuth Distance (km) Brightness Sun altitude
Rises 19:46:25 0° 158° (SSE) 3,377 7.1 -17.0°
Reaches altitude 10° 19:48:50 10° 154° (SSE) 2,439 6.3 -17.6°
Maximum altitude 19:54:06 55° 77° (ENE) 988 4.2 -18.9°
Drops below altitude 10° 19:59:20 10° 360° (N) 2,425 6.6 -20.2°
Sets 20:01:43 0° 356° (N) 3,355 7.4 -20.8°
